Location: Devore Heights
(34.2372°N, 117.4156°W)
Time: 01:59:48
(UTC+00:00)

SR - Pass Details

Date: 19 September 2024
Orbit: 578 x 855 km, 66.7° (Epoch: 02 October)

Event Time Altitude Azimuth Distance (km) Brightness Sun altitude
Rises 19:45:46 0° 216° (SW) 2,831 ? 56.8°
Reaches altitude 10° 19:48:04 10° 221° (SW) 1,910 ? 56.8°
Maximum altitude 19:52:13 53° 298° (WNW) 712 ? 56.7°
Drops below altitude 10° 19:56:21 10° 17° (NNE) 1,895 ? 56.7°
Sets 19:58:38 0° 22° (NNE) 2,807 ? 56.6°
